Regional Weather Roundup
Issued by NWS Green Bay, WI

Home | Current Version | Previous Version | Graphics & Text | Print | Product List | Glossary Off
Versions: 1 2 3 4 5 6 7 8 9 10 11 12 13 14 15 16 17 18 19 20 21 22 23 24 25 26 27 28 29 30 31 32 33 34 35 36 37 38 39 40 41 42 43 44 45 46 47 48 49 50

000
ASUS43 KGRB 261159
RWRGRB

NORTH-CENTRAL AND NORTHEAST WISCONSIN REGIONAL WEATHER ROUNDUP
NATIONAL WEATHER SERVICE GREEN BAY WI
700 AM CDT SUN APR 26 2015

WIZ005-009-010>012-018-019-261300-
NORTH CENTRAL WISCONSIN

CITY           SKY/WX    TMP DP  RH WIND       PRES   REMARKS
IRONWOOD       SUNNY     25  25 100 CALM      30.08R
MANITOWISH WTR NOT AVBL
ARBOR VITAE    NOT AVBL
EAGLE RIVER    NOT AVBL
LAND O LAKES   NOT AVBL
RHINELANDER    SUNNY     30  21  69 N3        30.06R
PHILLIPS       NOT AVBL
ANTIGO         NOT AVBL
TOMAHAWK       NOT AVBL
MERRILL        NOT AVBL
$$

WIZ013-073-261300-
NORTHEAST WISCONSIN

CITY           SKY/WX    TMP DP  RH WIND       PRES   REMARKS
IRON MOUNTAIN  SUNNY     30  22  72 CALM      30.04R
MARINETTE      SUNNY     32  19  59 N5        30.04R
$$

WIZ017-030-035>037-045-261300-
CENTRAL WISCONSIN

CITY           SKY/WX    TMP DP  RH WIND       PRES   REMARKS
MEDFORD        NOT AVBL
WAUSAU         SUNNY     33  22  63 NW5       30.05R
MOSINEE        SUNNY     32  19  59 N5        30.05R
MARSHFIELD     CLEAR     35  21  56 NE9       30.05R
WISC RAPIDS    CLEAR     35  20  54 NE7       30.06R
STEVENS POINT  NOT AVBL
WAUPACA        NOT AVBL
SHAWANO        NOT AVBL
CLINTONVILLE   NOT AVBL
$$

WIZ038-039-048-051-261300-
FOX VALLEY

CITY           SKY/WX    TMP DP  RH WIND       PRES   REMARKS
NWS GREEN BAY  SUNNY     35  22  58 N7        30.04R
APPLETON       SUNNY     32  19  59 N8        30.04R
OSHKOSH        SUNNY     34  23  64 N8        30.04R
FOND DU LAC    SUNNY     37  28  70 N5        30.03R
$$

WIZ022-050-052-261300-
EAST CENTRAL WISCONSIN

CITY           SKY/WX    TMP DP  RH WIND       PRES   REMARKS
STURGEON BAY   SUNNY     36  25  64 N8        30.06R
MANITOWOC      NOT AVBL
SHEBOYGAN      SUNNY     36  25  64 N7        30.01R
$$

LMZ563-521-522-541>543-261300-
LAKESHORE

STATION/POSITION TIME  TEMP    WIND        PRES    VSBY  WAVE
                       AIR SEA DIR/SP/G                  HT/PER
                 (UTC) (F)     (DEG/KT/KT) (MB)    (MI)  (FT/S)
SHEBOYGAN LKSHOR 1100   37     340/ 10/ 12 1016.8R
KEWAUNEE LKSHORE 1100   32     320/  3/  7 1015.9R
NORTHPORT PIER   1100   37     330/ 10/ 11 1016.9R
CHAMBERS ISLAND  1100   35     330/  9/ 12 1016.9R
MENOMINEE LKSHOR 1100   35     330/ 11/ 13 1017.8R
$$


USA.gov is the U.S. government's official web portal to all federal, state and local government web resources and services.